GLD1154 SBFL-SBPA

Flight info

Callsign GLD1154
Flight time 0h 46m
Altitude 26000
Route UGREV UN857 TIMVI
Aircraft B738/M-SDFGIRY/S

Departure

Time 2026-04-28 01:47
Airport Hercílio Luz International Airport (SBFL)

Arrival

Time 2026-04-28 02:33
Airport Porto Alegre-Salgado Filho International Airport (SBPA)
Time Latitude Longitude Altitude Speed Heading
2026-04-28 01:29 -27.67287 -48.54540 26 ft 0 kts 212°
2026-04-28 01:41 -27.67285 -48.54539 26 ft 3 kts 212°
2026-04-28 01:41 -27.67267 -48.54520 30 ft 4 kts 241°
2026-04-28 01:41 -27.67260 -48.54494 31 ft 4 kts 284°
2026-04-28 01:41 -27.67264 -48.54481 29 ft 1 kts 302°
2026-04-28 01:43 -27.67255 -48.54498 29 ft 10 kts 302°
2026-04-28 01:44 -27.67203 -48.54590 26 ft 15 kts 311°
2026-04-28 01:44 -27.67111 -48.54612 26 ft 14 kts 22°
2026-04-28 01:44 -27.67028 -48.54631 28 ft 13 kts 302°
2026-04-28 01:44 -27.66981 -48.54720 29 ft 13 kts 301°
2026-04-28 01:45 -27.66919 -48.54834 27 ft 18 kts 301°
2026-04-28 01:45 -27.66855 -48.54953 28 ft 18 kts 301°
2026-04-28 01:45 -27.66792 -48.55069 29 ft 17 kts 303°
2026-04-28 01:45 -27.66705 -48.55123 28 ft 8 kts 346°
2026-04-28 01:46 -27.66648 -48.55139 27 ft 8 kts 346°
2026-04-28 01:46 -27.66600 -48.55115 27 ft 8 kts 65°
2026-04-28 01:46 -27.66606 -48.55053 26 ft 8 kts 118°
2026-04-28 01:46 -27.66707 -48.54864 27 ft 67 kts 121°
2026-04-28 01:47 -27.67095 -48.54154 28 ft 143 kts 121°
2026-04-28 01:47 -27.67687 -48.53073 512 ft 168 kts 122°
2026-04-28 01:47 -27.68293 -48.51986 1605 ft 161 kts 125°
2026-04-28 01:47 -27.68995 -48.50990 2382 ft 169 kts 134°
2026-04-28 01:48 -27.70095 -48.50363 2669 ft 199 kts 179°
2026-04-28 01:48 -27.71527 -48.50713 2919 ft 224 kts 197°
2026-04-28 01:48 -27.73079 -48.51223 3297 ft 239 kts 195°
2026-04-28 01:48 -27.74728 -48.51726 3716 ft 255 kts 195°
2026-04-28 01:49 -27.76502 -48.52235 4191 ft 268 kts 195°
2026-04-28 01:49 -27.78342 -48.52736 4992 ft 273 kts 195°
2026-04-28 01:49 -27.80207 -48.53222 5896 ft 274 kts 196°
2026-04-28 01:49 -27.82068 -48.53694 6794 ft 275 kts 197°
2026-04-28 01:50 -27.83942 -48.54165 7596 ft 277 kts 197°
2026-04-28 01:50 -27.85813 -48.54633 8385 ft 280 kts 198°
2026-04-28 01:50 -27.87666 -48.55265 9158 ft 276 kts 214°
2026-04-28 01:50 -27.89142 -48.56595 10011 ft 270 kts 229°
2026-04-28 01:51 -27.90467 -48.58144 10548 ft 281 kts 231°
2026-04-28 01:51 -27.91857 -48.59841 10714 ft 306 kts 231°
2026-04-28 01:51 -27.93343 -48.61663 11046 ft 322 kts 231°
2026-04-28 01:51 -27.94882 -48.63536 11726 ft 326 kts 231°
2026-04-28 01:52 -27.96435 -48.65415 12438 ft 329 kts 231°
2026-04-28 01:52 -27.98009 -48.67314 13138 ft 333 kts 232°
2026-04-28 01:52 -27.99606 -48.69238 13830 ft 336 kts 232°
2026-04-28 01:52 -28.01213 -48.71171 14422 ft 338 kts 232°
2026-04-28 01:53 -28.02831 -48.73117 15027 ft 341 kts 232°
2026-04-28 01:53 -28.04472 -48.75091 15604 ft 346 kts 232°
2026-04-28 01:53 -28.06124 -48.77078 16264 ft 348 kts 232°
2026-04-28 01:53 -28.07791 -48.79084 16870 ft 351 kts 233°
2026-04-28 01:54 -28.09466 -48.81101 17485 ft 353 kts 233°
2026-04-28 01:54 -28.11140 -48.83119 18079 ft 357 kts 233°
2026-04-28 01:54 -28.12847 -48.85175 18550 ft 361 kts 233°
2026-04-28 01:54 -28.14572 -48.87257 19035 ft 362 kts 233°
2026-04-28 01:55 -28.16296 -48.89334 19696 ft 361 kts 233°
2026-04-28 01:55 -28.18017 -48.91410 20302 ft 362 kts 234°
2026-04-28 01:55 -28.19740 -48.93492 20867 ft 363 kts 234°
2026-04-28 01:55 -28.21471 -48.95584 21401 ft 365 kts 234°
2026-04-28 01:56 -28.23202 -48.97700 21904 ft 366 kts 236°
2026-04-28 01:56 -28.24907 -48.99843 22444 ft 366 kts 236°
2026-04-28 01:56 -28.26486 -49.01835 23053 ft 363 kts 237°
2026-04-28 01:56 -28.28165 -49.03947 23832 ft 357 kts 237°
2026-04-28 01:57 -28.29827 -49.06012 24441 ft 353 kts 237°
2026-04-28 01:57 -28.31483 -49.08064 24861 ft 353 kts 237°
2026-04-28 01:57 -28.33151 -49.10131 25347 ft 353 kts 238°
2026-04-28 01:57 -28.34803 -49.12177 25939 ft 350 kts 238°
2026-04-28 01:58 -28.36447 -49.14217 26056 ft 348 kts 238°
2026-04-28 01:58 -28.38068 -49.16226 26097 ft 343 kts 239°
2026-04-28 01:58 -28.39662 -49.18210 26098 ft 345 kts 239°
2026-04-28 01:58 -28.41285 -49.20235 26115 ft 348 kts 238°
2026-04-28 01:59 -28.42922 -49.22274 26108 ft 350 kts 238°
2026-04-28 01:59 -28.44565 -49.24318 26109 ft 350 kts 238°
2026-04-28 01:59 -28.46209 -49.26365 26120 ft 351 kts 238°
2026-04-28 01:59 -28.47859 -49.28419 26107 ft 351 kts 238°
2026-04-28 02:00 -28.49503 -49.30467 26127 ft 350 kts 238°
2026-04-28 02:00 -28.51143 -49.32510 26120 ft 350 kts 238°
2026-04-28 02:00 -28.52780 -49.34552 26118 ft 349 kts 238°
2026-04-28 02:00 -28.54411 -49.36586 26118 ft 347 kts 238°
2026-04-28 02:01 -28.56035 -49.38613 26114 ft 346 kts 239°
2026-04-28 02:01 -28.57652 -49.40634 26118 ft 345 kts 239°
2026-04-28 02:01 -28.59244 -49.42625 26110 ft 344 kts 238°
2026-04-28 02:01 -28.60854 -49.44642 26117 ft 344 kts 238°
2026-04-28 02:02 -28.62467 -49.46661 26120 ft 344 kts 238°
2026-04-28 02:02 -28.64080 -49.48683 26115 ft 345 kts 238°
2026-04-28 02:02 -28.65694 -49.50706 26115 ft 345 kts 238°
2026-04-28 02:02 -28.67306 -49.52727 26142 ft 345 kts 238°
2026-04-28 02:03 -28.68924 -49.54756 26130 ft 346 kts 238°
2026-04-28 02:03 -28.70542 -49.56786 26128 ft 346 kts 238°
2026-04-28 02:03 -28.72162 -49.58820 26129 ft 346 kts 238°
2026-04-28 02:03 -28.73775 -49.60847 26127 ft 346 kts 238°
2026-04-28 02:04 -28.75398 -49.62886 26129 ft 347 kts 238°
2026-04-28 02:04 -28.77015 -49.64919 26131 ft 346 kts 238°
2026-04-28 02:04 -28.78635 -49.66956 26120 ft 346 kts 238°
2026-04-28 02:04 -28.80227 -49.68959 26117 ft 345 kts 238°
2026-04-28 02:05 -28.81839 -49.70988 26120 ft 344 kts 239°
2026-04-28 02:05 -28.83442 -49.73008 26128 ft 342 kts 238°
2026-04-28 02:05 -28.85044 -49.75027 26133 ft 342 kts 238°
2026-04-28 02:05 -28.86645 -49.77047 26127 ft 343 kts 238°
2026-04-28 02:06 -28.88242 -49.79063 26123 ft 343 kts 238°
2026-04-28 02:06 -28.89844 -49.81081 26136 ft 344 kts 238°
2026-04-28 02:06 -28.91590 -49.82999 26127 ft 352 kts 232°
2026-04-28 02:06 -28.93480 -49.84786 26125 ft 355 kts 230°
2026-04-28 02:07 -28.95421 -49.86540 26135 ft 355 kts 230°
2026-04-28 02:07 -28.97365 -49.88289 26134 ft 355 kts 230°
2026-04-28 02:07 -28.99276 -49.90020 26121 ft 354 kts 230°
2026-04-28 02:07 -29.01186 -49.91767 26139 ft 352 kts 230°
2026-04-28 02:08 -29.03096 -49.93527 26132 ft 352 kts 231°
2026-04-28 02:08 -29.04996 -49.95289 26126 ft 351 kts 231°
2026-04-28 02:08 -29.06886 -49.97049 26150 ft 351 kts 231°
2026-04-28 02:08 -29.08144 -49.98224 26140 ft 352 kts 231°
2026-04-28 02:09 -29.10048 -50.00002 26145 ft 353 kts 231°
2026-04-28 02:09 -29.11828 -50.01665 26155 ft 355 kts 230°
2026-04-28 02:09 -29.13744 -50.03458 26148 ft 356 kts 230°
2026-04-28 02:09 -29.15659 -50.05250 26159 ft 356 kts 230°
2026-04-28 02:10 -29.17581 -50.07048 26150 ft 357 kts 230°
2026-04-28 02:10 -29.19504 -50.08848 26163 ft 358 kts 230°
2026-04-28 02:10 -29.21435 -50.10657 26153 ft 358 kts 230°
2026-04-28 02:10 -29.23363 -50.12463 26169 ft 358 kts 230°
2026-04-28 02:11 -29.25293 -50.14272 26149 ft 358 kts 230°
2026-04-28 02:11 -29.27195 -50.16055 26153 ft 357 kts 230°
2026-04-28 02:11 -29.29111 -50.17852 26159 ft 355 kts 230°
2026-04-28 02:11 -29.31025 -50.19649 26163 ft 354 kts 230°
2026-04-28 02:12 -29.32932 -50.21443 26155 ft 354 kts 230°
2026-04-28 02:12 -29.34837 -50.23233 26167 ft 354 kts 230°
2026-04-28 02:12 -29.36739 -50.25028 26131 ft 353 kts 230°
2026-04-28 02:12 -29.38632 -50.26807 26154 ft 353 kts 230°
2026-04-28 02:13 -29.40540 -50.28602 26168 ft 354 kts 230°
2026-04-28 02:13 -29.42444 -50.30394 26155 ft 355 kts 230°
2026-04-28 02:13 -29.44359 -50.32199 26163 ft 356 kts 230°
2026-04-28 02:13 -29.46277 -50.34006 26167 ft 357 kts 230°
2026-04-28 02:14 -29.48200 -50.35821 26162 ft 358 kts 230°
2026-04-28 02:14 -29.50125 -50.37637 26162 ft 359 kts 230°
2026-04-28 02:14 -29.52055 -50.39458 26164 ft 358 kts 230°
2026-04-28 02:14 -29.53972 -50.41271 25712 ft 363 kts 230°
2026-04-28 02:15 -29.57852 -50.44935 24817 ft 361 kts 228°
2026-04-28 02:15 -29.59791 -50.46769 24307 ft 362 kts 227°
2026-04-28 02:15 -29.61739 -50.48614 23785 ft 364 kts 226°
2026-04-28 02:16 -29.63696 -50.50468 23181 ft 364 kts 226°
2026-04-28 02:16 -29.65648 -50.52315 22649 ft 363 kts 226°
2026-04-28 02:16 -29.67590 -50.54154 22130 ft 361 kts 226°
2026-04-28 02:16 -29.69524 -50.55987 21607 ft 360 kts 226°
2026-04-28 02:17 -29.71459 -50.57822 21095 ft 358 kts 225°
2026-04-28 02:17 -29.73376 -50.59641 20592 ft 357 kts 225°
2026-04-28 02:17 -29.75287 -50.61456 20094 ft 355 kts 225°
2026-04-28 02:17 -29.77198 -50.63274 19584 ft 354 kts 225°
2026-04-28 02:18 -29.79066 -50.65051 19116 ft 352 kts 225°
2026-04-28 02:18 -29.80956 -50.66849 18611 ft 352 kts 225°
2026-04-28 02:18 -29.82844 -50.68647 18054 ft 351 kts 225°
2026-04-28 02:18 -29.84723 -50.70436 17509 ft 350 kts 225°
2026-04-28 02:19 -29.86598 -50.72222 17000 ft 348 kts 225°
2026-04-28 02:19 -29.88456 -50.73993 16490 ft 346 kts 225°
2026-04-28 02:19 -29.90315 -50.75765 15993 ft 344 kts 225°
2026-04-28 02:19 -29.92165 -50.77515 15505 ft 343 kts 224°
2026-04-28 02:20 -29.94035 -50.79215 15019 ft 342 kts 223°
2026-04-28 02:20 -29.95911 -50.80898 14527 ft 341 kts 223°
2026-04-28 02:20 -29.97787 -50.82582 14032 ft 341 kts 224°
2026-04-28 02:20 -29.99654 -50.84264 13497 ft 340 kts 224°
2026-04-28 02:21 -30.01504 -50.85935 12981 ft 339 kts 224°
2026-04-28 02:21 -30.03326 -50.87583 12488 ft 333 kts 223°
2026-04-28 02:21 -30.05122 -50.89208 12003 ft 323 kts 223°
2026-04-28 02:21 -30.06868 -50.90787 11545 ft 314 kts 224°
2026-04-28 02:22 -30.08301 -50.92573 11188 ft 293 kts 245°
2026-04-28 02:22 -30.09063 -50.94661 10883 ft 277 kts 257°
2026-04-28 02:22 -30.09324 -50.96813 10569 ft 266 kts 270°
2026-04-28 02:22 -30.09317 -50.98920 10249 ft 258 kts 272°
2026-04-28 02:23 -30.09266 -51.00865 9914 ft 253 kts 273°
2026-04-28 02:23 -30.09209 -51.02890 9503 ft 249 kts 272°
2026-04-28 02:23 -30.09158 -51.04874 9173 ft 246 kts 272°
2026-04-28 02:23 -30.09112 -51.06844 8864 ft 245 kts 272°
2026-04-28 02:24 -30.09069 -51.08826 8574 ft 251 kts 272°
2026-04-28 02:24 -30.09027 -51.10861 8241 ft 255 kts 272°
2026-04-28 02:24 -30.08987 -51.12910 7927 ft 255 kts 272°
2026-04-28 02:24 -30.08948 -51.14956 7605 ft 255 kts 272°
2026-04-28 02:25 -30.08908 -51.17010 7297 ft 256 kts 272°
2026-04-28 02:25 -30.08868 -51.19069 6978 ft 257 kts 272°
2026-04-28 02:25 -30.08825 -51.21137 6684 ft 257 kts 272°
2026-04-28 02:25 -30.08783 -51.23184 6364 ft 252 kts 272°
2026-04-28 02:26 -30.08742 -51.25158 6063 ft 246 kts 272°
2026-04-28 02:26 -30.08700 -51.27121 5779 ft 245 kts 272°
2026-04-28 02:26 -30.08658 -51.29092 5503 ft 246 kts 272°
2026-04-28 02:26 -30.08616 -51.31074 5230 ft 247 kts 272°
2026-04-28 02:27 -30.08572 -51.33062 4952 ft 248 kts 272°
2026-04-28 02:27 -30.08529 -51.35063 4652 ft 249 kts 272°
2026-04-28 02:27 -30.08355 -51.37046 4342 ft 249 kts 288°
2026-04-28 02:27 -30.07421 -51.38699 4066 ft 246 kts 317°
2026-04-28 02:28 -30.05938 -51.39616 3817 ft 243 kts 343°
2026-04-28 02:28 -30.04267 -51.39734 3567 ft 241 kts
2026-04-28 02:28 -30.02691 -51.39169 3363 ft 232 kts 18°
2026-04-28 02:28 -30.01230 -51.38506 3130 ft 220 kts 18°
2026-04-28 02:29 -29.99888 -51.37781 2887 ft 214 kts 35°
2026-04-28 02:29 -29.99117 -51.36384 2677 ft 206 kts 81°
2026-04-28 02:29 -29.99112 -51.34792 2486 ft 193 kts 96°
2026-04-28 02:29 -29.99160 -51.33285 2306 ft 183 kts 92°
2026-04-28 02:30 -29.99184 -51.31873 2162 ft 169 kts 92°
2026-04-28 02:30 -29.99209 -51.30559 1986 ft 155 kts 92°
2026-04-28 02:30 -29.99228 -51.29365 1862 ft 144 kts 93°
2026-04-28 02:30 -29.99254 -51.28183 1697 ft 150 kts 92°
2026-04-28 02:31 -29.99276 -51.26992 1536 ft 147 kts 92°
2026-04-28 02:31 -29.99297 -51.25819 1318 ft 144 kts 92°
2026-04-28 02:31 -29.99319 -51.24700 1119 ft 136 kts 92°
2026-04-28 02:31 -29.99339 -51.23611 952 ft 135 kts 91°
2026-04-28 02:32 -29.99359 -51.22539 767 ft 132 kts 90°
2026-04-28 02:32 -29.99379 -51.21493 597 ft 129 kts 90°
2026-04-28 02:32 -29.99399 -51.20462 418 ft 128 kts 91°
2026-04-28 02:32 -29.99419 -51.19432 254 ft 129 kts 91°
2026-04-28 02:33 -29.99438 -51.18403 61 ft 128 kts 91°
2026-04-28 02:33 -29.99455 -51.17480 18 ft 89 kts 91°
2026-04-28 02:33 -29.99467 -51.16909 15 ft 54 kts 91°
2026-04-28 02:33 -29.99390 -51.16741 17 ft 20 kts
2026-04-28 02:34 -29.99361 -51.16741 18 ft 0 kts
2026-04-28 02:34 -29.99349 -51.16741 18 ft 5 kts
2026-04-28 02:35 -29.99295 -51.16757 18 ft 10 kts 314°
2026-04-28 02:35 -29.99279 -51.16852 18 ft 15 kts 272°
2026-04-28 02:35 -29.99275 -51.16973 18 ft 15 kts 272°
2026-04-28 02:35 -29.99274 -51.17090 18 ft 14 kts 272°
2026-04-28 02:36 -29.99271 -51.17201 18 ft 14 kts 272°
2026-04-28 02:36 -29.99271 -51.17308 18 ft 13 kts 270°
2026-04-28 02:36 -29.99230 -51.17388 18 ft 13 kts 341°
2026-04-28 02:36 -29.99181 -51.17448 18 ft 5 kts 268°
2026-04-28 02:37 -29.99173 -51.17485 20 ft 5 kts 323°
2026-04-28 02:37 -29.99148 -51.17482 18 ft 1 kts
2026-04-28 02:37 -29.99141 -51.17481 18 ft 1 kts
2026-04-28 02:37 -29.99135 -51.17481 18 ft 1 kts
2026-04-28 02:38 -29.99134 -51.17481 18 ft 0 kts